Date,TemperatureHighF,TemperatureAvgF,TemperatureLowF,DewpointHighF,DewpointAvgF,DewpointLowF,HumidityHigh,HumidityAvg,HumidityLow,PressureMaxIn,PressureMinIn,WindSpeedMaxMPH,WindSpeedAvgMPH,GustSpeedMaxMPH,PrecipitationSumIn
2013-1-1,19.0,6.5,-11.0,16.5,3.2,-14.8,96,86,63,30.11,29.70,17,7,17,0.00
2013-1-2,19.2,11.8,0.5,18.5,8.6,-8.7,97,87,72,30.20,29.70,16,6,16,0.00
2013-1-3,27.1,15.0,-10.3,19.9,10.5,-14.3,90,82,72,30.23,29.72,21,8,21,0.00
2013-1-4,34.9,20.2,-6.5,23.2,13.9,-14.4,86,77,61,30.07,29.71,59,6,59,0.00
2013-1-7,38.3,29.8,25.7,29.8,24.5,15.3,91,81,63,30.06,29.40,23,5,23,0.00
2013-1-8,34.2,23.8,10.9,31.6,21.3,-2.4,99,90,83,30.17,29.42,27,10,27,0.00
2013-1-9,26.6,25.3,24.3,24.1,22.8,-2.0,94,90,85,30.18,29.49,21,11,21,0.00
2013-1-15,32.5,19.9,14.7,25.0,18.7,11.3,99,95,79,29.54,29.38,27,12,27,0.00
2013-1-16,37.9,-1.5,-9.8,28.0,-8.9,-18.4,93,70,52,30.22,29.48,23,8,23,0.00
2013-1-17,33.1,-3.1,-11.2,2.3,-9.5,-14.4,90,74,51,30.35,29.43,16,3,17,0.00
2013-1-18,26.1,6.1,-1.3,19.6,2.5,-7.2,91,85,71,30.07,29.38,119,4,119,0.00
2013-1-19,10.4,-0.2,-14.4,8.6,-3.9,-18.4,92,84,69,30.29,29.61,27,8,27,0.00
2013-1-20,6.4,-11.4,-20.7,-1.8,-16.8,-26.3,87,76,57,30.34,29.96,17,4,17,0.00
2013-1-21,9.3,-16.2,-21.8,-14.3,-22.9,-27.4,79,71,57,30.27,29.64,13,5,13,0.00
2013-1-22,7.0,-12.8,-23.8,-8.1,-19.2,-28.7,82,73,52,30.26,29.68,18,4,18,0.00
2013-1-23,-2.7,-12.8,-24.2,-9.2,-20.1,-29.4,81,70,52,30.64,30.05,21,6,21,0.00
2013-1-24,0.7,-11.9,-23.8,-2.0,-16.7,-29.2,88,79,62,30.63,29.87,21,8,21,0.00
2013-1-25,4.1,-7.0,-15.9,-0.9,-12.0,-20.9,89,78,61,30.26,29.85,14,4,14,0.00
2013-1-26,8.8,-4.1,-15.2,1.9,-9.5,-23.8,83,77,64,30.58,30.00,21,9,21,0.00
2013-1-29,11.8,6.6,-16.6,8.4,2.6,-23.4,87,83,70,30.43,29.87,21,8,21,0.00
2013-1-30,6.3,1.7,-8.0,3.7,-2.2,-15.0,89,84,74,30.22,29.84,15,6,15,0.00
2013-1-31,3.9,-13.4,-22.5,-11.2,-18.8,-28.3,85,76,65,30.25,29.94,16,6,16,0.00
2013-2-1,11.1,-17.1,-27.6,-0.9,-23.5,-32.8,82,72,53,30.63,29.90,15,4,17,0.00
2013-2-2,6.3,-8.6,-23.8,0.5,-13.1,-28.7,87,80,68,30.14,29.85,13,4,13,0.00
2013-2-3,14.5,0.6,-13.0,1.2,-5.2,-30.6,87,77,52,30.22,29.98,16,3,16,0.00
2013-2-4,13.1,2.7,-27.0,8.4,-0.4,-32.8,92,86,73,30.12,29.55,21,6,21,0.00
2013-2-5,6.1,-1.1,-9.4,2.5,-6.1,-21.8,90,79,64,30.05,29.64,13,5,13,0.00
2013-2-6,15.8,6.9,-11.0,9.1,2.0,-17.0,85,80,74,30.19,29.90,17,6,17,0.00
2013-2-7,24.4,5.8,-3.1,9.0,-0.2,-16.4,89,77,47,30.29,29.60,13,3,17,0.00
2013-2-8,21.4,12.9,-8.9,19.4,10.3,-12.5,94,89,83,30.23,29.89,23,10,23,0.00
2013-2-9,29.1,24.4,20.8,25.5,23.1,-1.8,99,95,86,30.20,29.81,17,8,17,0.00
2013-2-10,28.0,24.5,0.0,26.1,23.3,-5.6,99,95,84,30.29,29.78,27,10,27,0.00
2013-2-11,27.1,17.2,6.8,19.6,13.0,0.7,93,84,61,30.18,29.69,22,7,22,0.00
2013-2-12,38.7,22.0,8.4,27.0,16.9,6.8,99,81,59,29.86,29.57,16,6,16,0.00
2013-2-13,37.6,21.3,10.6,28.8,18.0,5.7,97,87,70,29.83,29.58,18,4,18,0.00
2013-2-14,26.1,6.8,-1.3,9.5,2.1,-4.0,89,81,63,30.22,29.69,15,5,16,0.00
2013-2-15,34.3,4.4,-6.3,23.2,0.3,-9.2,91,83,68,30.28,29.58,13,3,13,0.00
2013-2-16,34.3,7.8,-2.0,13.8,4.7,-4.7,92,87,75,30.14,29.58,24,10,24,0.00
2013-2-17,29.7,22.8,14.7,26.4,21.4,-8.5,99,94,72,30.24,29.39,27,13,27,0.00
2013-2-18,22.5,3.2,-8.1,22.3,-0.2,-15.3,99,85,70,30.27,29.56,65,18,65,0.00
2013-2-19,16.5,-8.5,-16.4,-11.0,-17.0,-22.2,75,66,52,30.50,29.72,21,9,21,0.00
2013-2-20,28.4,-1.7,-18.0,-4.4,-12.0,-22.5,83,62,42,30.51,29.40,15,4,27,0.00
2013-2-21,23.0,11.5,1.8,14.5,0.3,-17.3,96,61,47,30.36,29.64,29,8,29,0.00
2013-2-22,32.7,14.0,-2.7,14.0,6.0,-20.6,87,71,42,30.49,29.88,15,2,15,0.00
2013-2-23,23.9,17.4,8.6,21.4,15.6,-21.1,99,93,86,30.50,29.80,15,6,15,0.00
2013-2-24,23.5,16.7,6.8,19.8,14.1,-4.2,96,90,61,30.34,29.88,16,7,16,0.00
2013-2-25,31.3,17.4,4.3,22.5,13.9,0.7,96,87,68,30.14,29.84,19,6,19,0.00
2013-2-26,34.3,20.0,11.7,20.8,14.6,9.5,94,81,51,30.08,29.82,13,5,13,0.00
2013-2-27,33.6,22.6,8.8,26.2,18.1,5.9,97,83,72,30.27,29.91,22,8,22,0.00
2013-2-28,29.5,15.9,7.5,16.5,10.1,3.6,86,78,64,30.35,29.85,15,6,15,0.00
2013-3-1,32.7,15.7,5.5,17.4,8.3,3.0,91,74,50,30.42,29.88,11,3,11,0.00
2013-3-2,32.2,18.1,9.1,19.9,12.7,0.5,88,79,67,30.28,30.00,23,10,23,0.00
2013-3-3,34.3,26.6,14.2,23.0,19.4,4.3,86,75,60,30.35,29.88,17,6,17,0.00
2013-3-4,30.2,24.8,21.4,24.8,22.0,3.2,99,90,63,30.41,29.92,19,8,19,0.00
2013-3-5,27.1,21.0,16.0,22.3,18.9,1.0,99,92,78,30.38,29.97,21,8,21,0.00
2013-3-6,31.8,18.8,7.3,21.2,14.4,5.2,95,84,58,30.41,29.89,11,2,13,0.00
2013-3-7,33.6,21.3,7.5,21.2,15.3,5.9,95,79,55,30.30,29.94,20,7,20,0.00
2013-3-8,34.9,24.5,18.0,24.6,19.9,14.4,96,83,61,30.38,30.07,17,4,17,0.00
2013-3-9,40.3,24.8,18.5,22.8,19.0,6.3,89,79,46,30.40,29.84,19,4,19,0.00
2013-3-10,32.0,18.5,8.6,22.1,12.4,5.9,95,78,54,30.27,30.02,17,4,19,0.00
2013-3-11,35.6,17.8,7.5,22.3,10.5,5.0,93,74,42,30.14,29.80,8,3,8,0.00
2013-3-12,39.6,18.2,7.2,21.6,13.2,2.8,94,81,48,30.27,29.86,19,6,19,0.00
2013-3-13,27.0,10.4,-3.6,18.0,4.5,-6.3,89,77,56,30.29,30.01,20,7,20,0.00
2013-3-14,35.1,23.6,7.7,24.3,17.8,5.5,94,79,61,30.17,29.85,20,9,20,0.00
2013-3-15,28.9,4.9,0.3,6.4,-1.2,-5.8,87,75,64,30.27,29.96,21,10,21,0.00
2013-3-16,19.0,3.0,-8.5,13.8,-3.4,-14.3,87,75,51,30.28,30.01,16,5,16,0.00
2013-3-17,33.8,3.1,-11.2,13.5,-2.2,-15.2,93,78,57,30.26,29.69,23,7,26,0.00
2013-3-18,19.0,14.2,-0.9,16.3,11.3,-4.2,96,88,75,30.19,29.57,23,9,23,0.00
2013-3-19,19.8,5.4,-10.8,6.1,-3.5,-14.6,83,67,52,30.27,29.92,17,6,17,0.00
2013-3-20,21.9,6.9,-7.2,9.0,-1.3,-11.0,84,69,53,30.30,29.62,16,5,16,0.00
2013-3-21,28.6,11.4,-4.4,14.9,3.8,-7.1,89,73,51,30.16,29.58,15,4,15,0.00
2013-3-22,33.8,15.2,-8.1,21.9,7.9,-13.2,89,74,48,30.26,30.06,12,3,12,0.00
2013-3-23,31.8,19.0,3.4,23.9,14.1,-9.6,94,81,62,30.27,30.10,15,5,15,0.00
2013-3-24,34.0,25.0,18.5,26.6,19.7,-6.9,88,80,63,30.26,30.10,15,8,15,0.00
2013-3-25,34.7,24.6,13.6,25.0,19.1,-5.8,91,80,64,30.33,30.09,11,5,12,0.00
2013-3-26,37.8,20.7,3.2,23.0,13.8,1.2,94,77,50,30.30,30.11,13,2,13,0.00
2013-3-27,39.7,20.7,3.7,22.3,13.8,1.8,95,77,47,30.32,30.17,11,3,11,0.00
2013-3-28,41.9,26.9,13.3,28.8,21.0,7.5,98,80,52,30.32,30.17,13,3,13,0.00
2013-3-29,36.7,24.6,15.6,31.3,22.9,2.8,99,94,75,30.29,29.93,12,5,12,0.00
2013-3-30,45.5,32.0,16.9,33.4,26.2,2.1,99,81,60,30.31,29.82,26,4,26,0.00
2013-3-31,40.1,22.5,13.8,28.4,15.6,8.2,99,75,55,30.25,29.85,23,9,23,0.00
2013-4-1,36.1,19.7,4.8,21.2,11.0,1.0,94,70,51,30.24,29.91,11,4,11,0.00
2013-4-2,43.5,20.6,11.7,27.3,10.3,4.8,97,66,39,30.35,29.84,14,4,14,0.00
2013-4-3,83.3,27.2,14.0,34.9,22.0,6.8,94,81,72,30.24,29.80,36,11,36,0.00
2013-4-4,34.7,26.7,5.2,26.2,18.3,1.6,88,71,51,30.27,29.94,18,6,18,0.00
2013-4-5,33.8,23.7,9.9,28.6,16.3,5.7,98,76,41,30.35,29.85,17,5,17,0.00
2013-4-6,38.7,33.2,26.1,33.3,29.9,9.9,97,88,74,30.14,29.72,20,7,23,0.04
2013-4-7,33.6,27.5,20.8,27.7,22.4,17.1,98,81,62,29.91,29.83,20,8,20,0.00
2013-4-8,28.2,19.9,11.3,18.0,11.3,4.6,89,69,53,30.28,29.91,24,11,24,0.00
2013-4-9,37.4,19.9,3.7,22.8,10.7,-1.3,84,68,51,30.41,29.75,14,4,14,0.00
2013-4-10,39.7,25.8,10.2,25.7,15.1,7.2,97,66,39,30.35,29.84,17,5,17,0.00
2013-4-11,46.4,35.2,25.2,23.7,16.0,-0.2,70,47,27,30.32,29.97,18,6,18,0.00
2013-4-12,39.0,34.9,22.5,30.9,25.2,-0.9,91,68,49,30.41,29.88,16,6,16,0.00
2013-4-13,40.6,30.6,23.2,26.8,23.1,16.7,89,75,52,30.31,29.89,13,4,13,0.00
2013-4-21,44.1,36.8,30.6,38.3,32.6,27.0,99,86,64,30.06,29.86,21,8,21,0.04
2013-4-22,40.8,32.0,23.9,27.0,22.4,19.6,91,69,45,30.31,29.86,16,6,16,0.00
2013-4-23,43.5,31.3,16.5,29.5,23.6,15.3,97,75,52,30.27,29.90,14,4,14,0.00
2013-4-24,47.1,34.0,24.4,36.3,28.9,22.5,94,82,59,30.04,29.78,20,5,20,0.00
2013-4-25,33.6,25.3,20.1,30.7,24.2,19.6,99,96,82,30.26,29.95,8,2,11,0.00
2013-5-7,66.6,64.0,58.3,49.3,48.6,43.7,64,57,53,29.89,29.83,21,3,21,0.00
2013-5-8,82.6,49.8,38.5,43.5,32.8,19.2,73,54,21,30.24,29.88,28,14,28,0.00
2013-5-9,79.7,47.6,30.6,48.7,23.7,15.8,80,44,21,30.31,29.82,17,7,17,0.00
2013-5-10,71.6,45.8,36.1,47.1,33.3,22.8,95,63,42,30.17,29.89,24,8,24,0.13
2013-5-11,52.2,40.8,31.6,34.7,26.6,19.9,95,60,32,30.28,30.11,23,9,23,0.00
2013-5-12,67.5,48.1,23.9,27.9,20.7,14.5,88,41,14,30.29,29.89,18,4,18,0.00
2013-5-13,85.1,64.7,48.7,46.4,35.3,25.2,47,35,21,30.17,29.46,34,12,34,0.00
2013-5-14,79.5,66.0,55.0,59.4,48.3,20.8,79,54,30,30.26,29.29,36,10,36,0.00
2013-5-15,123.6,60.1,43.0,81.1,41.5,14.5,90,55,13,30.20,29.66,17,4,17,0.00
2013-5-16,82.6,57.2,44.6,47.8,36.8,26.8,70,48,22,29.96,29.44,21,4,21,0.00
2013-5-17,77.0,58.4,48.6,56.5,48.9,40.6,91,71,48,29.98,29.30,21,5,21,0.11
2013-5-18,68.4,58.8,55.0,56.8,51.3,45.3,99,77,56,29.89,29.78,12,3,12,0.20
2013-5-19,62.2,57.0,51.6,57.7,55.0,51.1,99,93,79,29.92,29.78,28,9,59,0.27
2013-5-20,59.0,55.0,49.5,54.1,50.5,43.3,95,85,72,29.88,29.75,33,17,33,0.39
2013-5-21,76.5,60.2,48.4,75.6,34.2,12.7,75,43,10,29.95,29.86,31,12,31,0.04
2013-5-22,73.6,59.6,40.5,51.3,41.3,34.3,81,53,32,30.20,29.94,28,10,28,0.00
2013-5-23,73.2,57.0,38.8,39.4,30.3,19.6,72,41,14,30.37,30.19,13,5,15,0.00
2013-5-24,58.1,47.1,42.6,36.5,33.4,31.3,71,59,43,30.26,29.86,15,2,15,0.00
2013-6-1,62.1,54.9,46.2,48.2,44.4,39.9,86,69,54,30.06,29.90,25,12,25,0.00
2013-6-2,67.8,53.4,36.1,43.2,35.9,30.9,95,56,27,30.10,30.01,17,6,17,0.00
2013-6-3,72.9,57.9,36.9,41.4,31.6,22.5,93,44,18,30.07,29.76,17,4,23,0.00
2013-6-4,78.1,63.5,48.2,44.8,39.0,34.3,88,43,22,30.08,29.88,18,4,21,0.00
2013-6-9,69.4,62.6,58.1,60.3,58.3,55.4,91,86,70,29.84,29.80,17,7,17,0.01
2013-6-10,79.3,65.2,57.0,62.8,57.4,52.3,96,78,46,29.81,29.63,20,6,20,0.00
2013-6-11,82.2,68.2,49.3,58.5,52.0,48.4,99,61,33,29.87,29.76,15,4,15,0.00
2013-6-12,78.4,67.2,55.0,59.0,54.0,49.8,91,65,40,30.06,29.80,18,5,18,0.00
2013-6-13,86.0,70.2,53.1,59.9,50.4,40.6,99,56,22,30.14,29.66,15,4,16,0.00
2013-6-14,80.4,68.7,51.1,65.5,57.8,45.7,97,69,48,29.99,29.69,20,7,20,0.14
2013-6-15,83.7,69.0,55.9,64.6,53.7,46.4,94,62,30,29.77,29.65,23,7,23,0.02
2013-6-16,80.1,66.9,54.9,59.0,56.0,52.3,95,70,43,29.85,29.70,14,5,14,0.00
2013-6-17,80.1,67.9,55.8,59.5,51.3,41.4,96,61,26,30.04,29.84,18,6,18,0.00
2013-6-18,86.0,69.8,50.5,60.8,53.9,46.8,94,60,31,30.06,29.68,13,4,13,0.00
2013-6-19,93.0,75.1,53.8,61.5,56.1,51.8,96,56,27,29.91,29.71,17,4,17,0.00
2013-6-20,84.7,72.7,62.2,68.9,62.9,44.2,99,73,31,30.02,29.82,17,6,17,0.87
2013-6-21,77.4,71.4,63.3,67.6,65.4,62.2,96,82,71,29.97,29.84,14,4,14,0.00
2013-6-22,85.1,74.9,65.3,70.0,66.2,63.9,96,76,56,29.94,29.75,19,7,19,0.00
2013-6-23,81.0,66.6,58.3,70.0,64.6,57.7,99,94,68,29.76,29.45,27,6,27,0.81
2013-6-24,90.0,73.6,57.0,65.1,60.7,55.9,99,68,37,29.70,29.59,17,6,17,0.01
2013-6-25,95.4,79.0,61.7,72.5,65.8,60.6,99,67,42,29.71,29.56,33,4,33,0.41
2013-6-26,87.3,73.9,64.0,71.8,66.2,63.1,99,79,52,29.65,29.56,17,5,17,0.44
2013-6-27,81.1,70.5,62.4,68.0,64.3,62.1,99,82,54,29.81,29.62,22,7,22,0.01
2013-6-28,84.9,69.9,63.5,69.8,63.9,61.0,98,82,54,29.95,29.81,20,6,20,0.07
2013-6-29,85.3,73.3,59.5,67.3,58.6,47.1,98,65,27,30.04,29.94,20,7,20,0.00
2013-6-30,88.5,74.3,56.7,64.8,57.0,48.6,88,59,26,30.16,30.04,16,4,16,0.00
2013-7-1,94.1,78.0,58.5,65.7,59.4,50.7,95,58,26,30.20,29.95,11,2,11,0.00
2013-7-2,96.6,80.1,64.4,68.2,63.2,48.6,83,59,31,30.10,29.94,14,2,20,0.00
2013-7-3,94.8,80.4,63.9,66.6,63.1,49.3,97,61,30,30.17,29.72,16,4,16,0.00
2013-7-4,93.6,79.4,58.5,72.9,65.1,54.7,93,63,31,30.20,29.62,18,6,18,0.00
2013-7-5,94.3,79.4,66.4,68.2,61.8,50.9,95,59,27,30.08,29.65,14,5,14,0.00
2013-7-6,93.7,77.3,69.4,67.8,62.8,57.4,83,62,38,29.93,29.71,11,3,11,0.00
2013-7-7,91.8,75.5,67.1,69.1,65.1,60.6,99,72,48,29.90,29.62,20,6,20,0.00
2013-7-8,90.3,74.2,58.8,69.8,64.2,58.3,99,74,45,29.93,29.65,17,4,17,0.00
2013-7-9,86.0,67.1,60.4,64.8,58.3,52.0,99,75,50,29.93,29.71,18,6,18,0.28
2013-7-10,83.5,70.4,57.4,66.6,61.4,20.1,99,76,47,29.98,29.90,11,4,11,0.01
2013-7-11,88.2,76.0,61.5,71.8,64.1,58.8,92,69,41,29.91,29.66,22,9,22,0.00
2013-7-12,82.2,76.1,70.2,74.8,71.2,69.3,99,85,73,29.77,29.58,23,7,23,0.04
2013-7-13,94.3,77.5,63.7,70.2,62.1,55.0,99,64,33,30.02,29.77,16,6,16,0.00
2013-7-14,81.7,70.6,61.3,64.9,59.8,55.9,96,71,45,30.18,29.92,18,8,18,0.04
2013-7-15,86.9,73.9,58.1,73.0,62.4,51.4,93,71,35,30.19,29.92,23,7,23,0.00
2013-7-16,86.0,76.1,63.7,71.6,64.7,55.6,98,70,45,30.15,29.81,23,7,23,0.00
2013-7-17,88.9,73.7,57.6,64.2,56.0,48.9,92,58,31,30.20,30.01,14,3,15,0.00
2013-7-18,84.9,71.4,62.2,71.2,64.8,55.6,99,81,59,30.18,29.58,26,3,26,0.30
2013-7-19,83.3,69.0,53.8,67.8,57.3,45.9,99,71,33,29.95,29.66,118,8,118,0.01
2013-7-20,73.2,61.6,48.0,50.9,47.7,45.1,93,63,39,30.07,29.94,17,6,17,0.00
2013-7-21,77.0,63.5,48.9,63.7,54.8,46.2,99,76,43,29.97,29.52,16,4,16,0.98
2013-7-22,74.7,66.1,57.2,63.0,58.0,52.0,99,77,49,29.92,29.51,20,7,21,0.00
2013-7-23,81.5,66.4,51.8,59.7,55.3,49.8,98,71,40,30.04,29.91,13,3,13,0.00
2013-7-24,84.6,68.7,57.7,67.3,60.8,55.6,96,77,49,29.98,29.83,25,5,25,0.02
2013-7-25,75.9,62.2,57.0,65.7,59.0,54.3,99,90,64,30.07,29.81,27,7,27,0.22
2013-7-26,69.3,61.2,51.1,55.2,51.4,48.0,98,72,50,30.22,30.06,23,8,23,0.00
2013-7-27,76.1,63.2,47.8,55.9,50.9,46.9,99,68,41,30.19,30.03,21,6,21,0.00
2013-7-28,84.9,67.1,47.1,59.7,50.4,43.5,99,61,28,30.09,29.93,20,2,20,0.00
2013-7-29,78.8,65.7,53.1,64.6,56.1,49.3,98,73,49,30.21,29.86,18,6,18,0.01
2013-7-30,80.1,69.1,58.6,64.8,60.5,55.2,99,77,47,29.97,29.88,18,5,18,0.14
2013-7-31,79.3,66.2,52.7,58.1,55.6,51.4,99,72,44,29.97,29.91,20,6,20,0.00
2013-8-1,81.3,69.9,58.6,62.2,57.3,53.8,93,67,42,29.92,29.83,18,5,18,0.02
2013-8-2,80.2,64.9,50.7,60.6,53.8,48.4,97,70,41,30.09,29.87,15,4,15,0.00
2013-8-3,81.1,65.3,49.5,55.6,51.4,46.6,93,65,36,30.21,30.09,10,2,10,0.00
2013-8-4,79.7,60.3,49.6,59.7,55.2,48.7,99,85,46,30.19,29.88,11,3,11,0.25
2013-8-5,84.2,68.4,57.0,64.4,59.9,56.5,99,77,46,29.92,29.70,18,4,19,0.01
2013-8-6,75.6,64.9,56.1,61.3,54.7,44.8,99,73,40,29.89,29.68,21,7,21,0.00
2013-8-7,73.4,60.3,52.5,53.6,49.8,44.6,89,70,43,30.01,29.88,18,4,18,0.01
2013-8-8,55.9,54.7,53.6,50.9,49.4,48.0,87,82,80,30.01,29.99,4,1,4,0.00
2013-8-9,66.6,63.1,56.1,59.2,57.1,54.1,99,81,71,30.10,30.04,17,5,17,0.00
2013-8-10,84.6,64.5,51.3,62.8,56.4,50.9,99,80,36,30.13,30.03,27,3,27,0.18
2013-8-11,83.3,66.8,51.8,65.1,57.0,51.4,99,76,38,30.07,29.97,15,3,15,0.01
2013-8-12,77.0,66.3,55.9,60.4,54.2,48.2,98,69,39,30.15,29.99,17,5,17,0.00
2013-8-13,72.5,54.2,47.3,59.0,49.2,44.6,96,84,59,30.96,30.14,11,1,11,0.00
2013-8-18,85.3,77.2,70.3,73.4,71.8,68.5,99,84,65,29.82,29.75,15,4,15,0.01
2013-8-19,98.6,79.4,61.3,71.4,67.1,61.0,99,71,35,29.81,29.62,18,6,18,0.01
2013-8-20,94.5,77.0,64.9,71.8,64.8,55.2,97,69,41,29.75,29.62,28,6,28,0.00
2013-8-21,83.8,70.7,57.4,61.3,53.8,44.6,97,61,26,30.07,29.75,16,4,16,0.00
2013-8-22,97.0,69.8,51.8,60.8,52.7,48.9,97,60,29,30.17,29.63,18,2,18,0.00
2013-8-23,93.0,72.0,54.9,64.4,56.4,50.2,94,61,32,30.06,29.63,21,7,21,0.00
2013-8-24,91.8,77.7,69.1,77.7,72.0,49.5,99,83,54,30.00,29.61,19,8,19,0.01
2013-8-25,99.9,81.9,69.8,74.3,67.4,52.3,99,68,23,29.88,29.68,12,3,12,0.00
2013-8-26,97.9,79.8,63.0,72.1,66.2,60.6,99,68,31,29.91,29.79,13,3,13,0.00
2013-8-27,99.0,83.2,68.4,76.3,70.4,64.6,99,70,35,29.85,29.64,12,3,12,0.00
2013-8-28,104.2,84.3,67.5,73.4,65.7,51.6,99,62,19,29.95,29.71,8,2,8,0.00
2013-8-29,87.1,75.3,70.3,75.0,70.2,63.3,99,85,57,29.91,29.77,20,4,20,0.04
2013-8-30,89.8,77.2,64.6,72.9,69.2,64.2,99,78,50,29.94,29.67,19,6,19,0.00
2013-8-31,94.8,74.5,59.0,70.7,65.6,58.6,99,77,35,29.83,29.62,20,6,20,0.06
2013-9-1,70.3,60.7,50.7,58.6,52.1,46.9,99,76,46,30.04,29.82,23,8,23,0.00
2013-9-2,78.6,60.1,44.1,54.3,48.4,43.9,99,72,35,30.09,29.96,15,4,15,0.00
2013-9-4,79.0,64.8,53.8,48.0,44.0,36.7,74,51,23,30.14,30.04,6,1,6,0.00
2013-9-5,87.3,69.0,50.5,64.6,52.7,44.2,84,60,27,30.15,29.88,20,7,20,0.00
2013-9-6,99.7,79.6,66.2,72.9,66.6,53.6,97,67,40,29.91,29.77,19,6,19,0.00
2013-9-7,84.0,70.6,59.5,60.6,55.9,47.5,91,63,35,30.14,29.91,23,9,23,0.00
2013-9-8,87.3,66.7,51.6,62.1,58.1,44.2,91,75,34,30.14,29.79,18,4,18,0.57
2013-9-9,93.9,64.3,61.0,64.8,62.1,58.6,99,93,86,29.83,29.67,9,3,9,0.04
2013-9-10,86.4,69.1,59.5,65.8,62.3,59.2,99,83,43,29.80,29.73,12,3,12,0.02
2013-9-12,76.5,63.3,50.7,52.3,50.0,48.2,93,65,41,30.19,30.17,11,2,11,0.00
2013-9-13,83.8,66.6,48.2,56.8,52.5,46.6,99,65,35,30.17,29.73,19,8,19,0.01
2013-9-14,74.1,64.4,51.1,62.1,53.8,46.0,95,69,45,30.21,29.70,26,10,26,0.07
2013-9-15,82.2,48.0,38.7,63.9,42.4,37.6,98,82,46,30.31,30.08,15,5,15,0.04
2013-9-16,72.9,65.2,59.0,49.3,48.5,47.1,68,56,41,30.31,29.96,23,11,23,0.07
2013-9-17,70.7,61.5,53.2,60.1,54.1,43.5,95,77,61,30.14,29.68,30,14,30,0.00
2013-9-18,75.4,66.3,59.7,67.1,63.2,56.5,99,90,70,29.82,29.52,16,7,16,0.02
2013-9-19,66.6,61.6,51.6,65.8,58.6,49.6,99,91,73,30.31,29.52,18,4,18,0.00
2013-9-20,61.3,51.0,43.3,49.6,44.8,38.8,99,80,58,29.95,29.85,22,5,22,0.01
2013-9-21,66.4,50.0,34.2,46.2,40.7,33.8,99,74,43,29.99,29.83,12,3,12,0.00
2013-9-22,76.5,59.8,44.4,56.3,49.2,40.3,92,70,48,29.84,29.51,23,11,23,0.00
2013-9-23,82.0,71.7,54.0,63.0,57.2,41.4,87,62,43,29.94,29.48,32,14,32,0.00
2013-9-24,81.0,60.2,38.1,59.4,54.7,34.9,99,83,28,29.98,29.66,11,5,11,0.00
2013-9-25,74.3,58.8,44.8,55.2,48.8,41.5,92,72,50,29.83,29.54,15,10,15,0.00
2013-9-26,69.4,63.4,56.8,64.6,57.9,52.3,99,82,72,29.73,29.49,22,9,22,0.18
2013-9-27,63.3,54.7,45.9,53.6,50.2,45.1,98,85,70,29.82,29.70,10,3,10,0.00
2013-9-28,53.8,50.7,43.5,52.0,50.0,26.6,99,97,51,29.81,29.58,10,4,10,13.30
2013-9-29,72.0,55.1,40.3,58.8,49.6,40.1,99,83,61,29.66,29.42,44,7,44,0.01
2013-9-30,78.4,66.0,54.9,55.2,47.6,39.0,93,55,26,29.43,29.36,15,6,15,0.01
2013-10-1,55.6,50.6,45.3,54.7,50.2,45.1,99,99,97,29.73,29.41,8,4,8,12.06
2013-10-2,69.3,50.8,38.7,45.9,42.1,37.4,99,75,40,29.92,29.47,11,3,11,0.19
2013-10-3,63.0,48.7,39.2,49.6,42.8,24.6,99,81,53,30.24,29.39,47,6,47,0.00
2013-10-4,48.2,42.1,37.2,39.7,36.1,32.9,92,79,65,30.36,29.40,23,10,23,0.00
2013-10-5,57.0,42.9,34.2,41.7,36.0,32.0,94,77,55,30.25,29.81,23,10,23,0.00
2013-10-6,72.9,48.8,30.7,45.5,37.1,29.1,95,68,37,30.27,29.73,15,4,15,0.00
2013-10-7,69.1,52.2,36.9,47.8,41.8,32.9,99,71,42,30.36,29.65,17,4,17,0.00
2013-10-8,73.2,58.4,48.9,52.5,47.6,38.1,85,68,47,30.17,29.51,18,7,18,0.00
2013-10-9,77.7,56.7,42.6,52.0,44.0,38.5,88,66,34,29.97,29.68,8,2,12,0.00
2013-10-10,50.2,47.2,43.7,44.6,43.4,41.2,91,87,79,29.96,29.94,2,0,4,0.00
2013-10-12,50.9,45.0,35.2,45.0,40.3,34.3,99,84,72,30.05,29.72,23,6,23,0.00
2013-10-13,60.8,43.7,32.9,42.8,35.1,30.9,96,75,37,30.32,30.05,12,4,12,0.00
2013-10-14,50.0,39.7,27.9,41.4,34.9,26.6,99,84,69,30.32,29.73,8,2,8,0.00
2013-10-15,69.4,36.1,31.3,48.9,32.8,28.9,96,89,48,30.22,29.76,8,2,8,0.28
2013-10-16,126.9,40.0,32.0,99.9,34.1,28.2,95,82,44,30.32,29.72,98,7,98,0.01
2013-10-17,57.9,45.2,14.7,39.9,33.1,6.8,98,65,39,30.30,29.85,15,4,15,12.09
2013-10-18,128.8,40.7,32.5,57.9,33.7,27.9,91,83,11,30.16,29.66,7,-48,7,12.84
2013-10-19,38.5,37.1,36.5,38.3,36.9,36.3,99,99,98,29.73,29.65,11,5,11,0.05
2013-10-20,39.4,36.4,34.0,34.9,29.3,23.9,99,76,56,29.87,29.70,24,10,24,0.01
2013-10-21,34.9,32.2,30.4,29.8,28.9,27.5,90,87,80,29.95,29.65,5,2,5,0.00
2013-10-22,41.5,33.2,28.4,32.9,29.8,25.0,99,88,68,30.04,29.66,14,4,14,12.14
2013-10-23,41.0,26.2,20.8,41.0,23.0,17.4,94,86,70,30.06,29.68,12,3,12,0.01
2013-10-24,34.2,33.3,31.5,29.5,29.1,28.4,88,84,82,30.19,29.93,2,1,2,0.00
2013-10-25,55.2,41.6,29.5,41.2,35.4,28.8,99,79,59,30.10,29.60,19,-1,19,0.77
2013-10-26,45.1,40.4,36.3,35.2,31.7,29.3,83,71,66,30.11,29.70,15,7,15,0.00
2013-10-27,40.3,33.5,26.8,32.7,26.2,18.5,88,74,62,30.44,29.64,34,12,34,0.00
2013-10-28,34.7,24.9,17.8,20.7,17.6,13.1,86,74,54,30.61,29.61,14,4,15,0.00
2013-10-29,40.1,27.0,15.3,30.2,18.3,13.5,94,71,46,30.46,29.64,15,5,15,0.00
2013-10-30,50.5,34.5,23.4,34.2,26.9,-15.9,87,75,15,30.43,29.58,19,7,22,0.00
2013-10-31,51.3,35.5,26.8,38.7,31.4,18.0,99,86,61,30.60,29.40,11,3,11,0.00
2013-11-1,50.0,33.3,21.9,39.4,29.8,15.8,99,88,60,30.40,29.42,17,3,17,0.00
2013-11-2,57.2,36.2,23.0,40.6,31.3,20.5,99,85,50,29.94,29.54,13,2,13,0.00
2013-11-3,50.9,43.0,34.0,37.4,34.9,29.7,88,74,56,29.88,29.42,22,9,22,0.00
2013-11-4,48.9,39.3,26.6,37.4,31.3,19.8,83,72,64,29.88,29.53,53,9,53,0.76
2013-11-5,32.9,29.1,26.2,23.4,21.4,19.8,80,73,64,30.07,29.83,18,7,18,0.00
2013-11-6,42.4,29.2,17.6,28.8,22.7,14.0,87,77,49,30.12,29.58,21,4,21,0.00
2013-11-7,40.3,28.7,15.1,26.2,20.4,12.4,91,73,45,30.14,29.54,16,4,16,0.00
2013-11-8,40.8,30.2,19.2,34.9,28.0,17.4,99,92,62,30.06,29.61,17,5,17,0.06
2013-11-9,35.8,33.7,30.4,35.6,33.0,25.5,99,97,82,30.17,29.62,16,5,16,0.02
2013-11-10,30.7,22.3,9.3,28.2,16.5,3.6,94,79,53,30.38,30.01,23,9,23,0.00
2013-11-11,21.2,11.6,5.5,11.7,5.6,1.9,87,77,64,30.65,30.01,16,5,16,0.00
2013-11-12,39.7,22.9,7.7,29.3,16.9,2.8,88,77,64,30.59,29.91,21,10,21,0.00
2013-11-13,56.7,38.9,28.0,38.3,29.9,25.0,95,74,32,30.43,29.61,20,7,20,0.00
2013-11-14,38.8,33.4,28.2,34.5,31.9,27.0,99,94,75,30.63,29.64,7,2,10,0.00
2013-11-15,50.5,37.7,29.8,41.7,34.5,23.4,99,89,71,30.42,29.29,25,9,25,0.00
2013-11-16,43.0,32.4,25.7,37.8,32.1,25.5,99,99,96,29.75,29.25,21,7,21,0.01
2013-11-17,30.9,25.4,20.8,30.7,25.2,20.5,99,99,96,29.90,29.39,26,12,26,0.00
2013-11-18,30.0,19.6,16.2,22.1,17.3,15.3,99,91,70,30.14,29.89,17,5,17,0.00
2013-11-19,36.0,29.3,18.5,31.6,25.8,17.8,97,87,74,30.08,29.37,25,12,25,0.00
2013-11-20,31.8,21.6,12.6,29.8,17.4,9.0,97,84,69,30.26,29.43,19,9,22,0.00
2013-11-21,20.1,8.2,1.0,16.9,4.4,-2.6,97,84,68,30.53,30.01,17,6,17,0.00
2013-11-22,14.4,6.3,-6.3,10.9,2.4,-9.8,95,84,74,30.79,29.48,19,7,19,0.00
2013-11-23,25.2,-0.9,-10.5,18.0,-6.1,-13.7,87,79,54,30.84,29.85,16,6,16,1.51
2013-11-24,56.8,22.8,1.2,52.3,19.1,-2.0,97,77,24,30.53,29.57,51,10,51,0.76
2013-11-25,34.7,26.7,-7.6,31.1,22.6,-10.8,99,84,73,30.81,29.60,60,9,60,0.00
2013-11-26,15.3,6.7,-0.8,11.8,3.3,-4.7,92,84,57,30.78,29.57,12,2,12,0.00
2013-11-27,32.4,16.6,9.1,30.6,14.8,8.1,99,93,77,30.23,29.81,20,5,20,25.84
2013-11-28,19.0,8.2,1.6,16.7,6.3,-0.2,96,92,82,30.42,30.11,100,3,100,0.00
2013-11-29,43.3,15.0,1.8,24.4,11.9,0.1,94,87,47,30.41,29.66,100,7,100,12.19
2013-11-30,22.5,21.2,20.3,20.8,19.1,17.8,96,91,88,30.24,29.96,9,3,9,0.00
2013-12-1,39.4,22.0,19.8,36.1,20.5,18.7,99,94,83,30.42,29.89,11,4,11,0.24
2013-12-2,23.2,20.0,15.4,20.1,18.0,13.8,96,92,84,30.33,26.90,21,10,21,0.00
2013-12-3,20.7,14.4,9.9,15.4,12.7,7.5,97,93,88,30.17,29.91,23,13,23,0.00
2013-12-4,15.3,12.3,9.5,14.2,11.3,8.4,97,96,95,30.14,29.77,23,12,23,0.00
2013-12-5,10.9,4.3,-4.2,9.9,1.7,-7.1,96,89,81,30.20,29.76,21,9,21,0.00
2013-12-6,4.8,-4.7,-9.6,-2.7,-9.2,-13.5,87,80,66,30.47,29.98,17,5,18,0.00
2013-12-7,-4.0,-11.6,-19.7,-13.7,-17.8,-23.6,84,74,56,30.47,29.84,16,4,16,0.00
2013-12-31,-15.5,-22.0,-24.9,-26.3,-28.0,-30.3,77,73,59,30.45,30.36,8,2,8,0.00
2014-1-1,-6.9,-19.1,-24.9,-18.4,-25.1,-30.1,79,74,54,30.50,30.11,9,3,9,0.00
2014-1-2,-4.7,-16.5,-27.6,-11.2,-22.3,-33.0,83,75,58,30.44,29.88,27,7,27,0.00